Regional Weather Roundup
Issued by NWS Kansas City/Pleasant Hill, MO

Home | Current Version | Previous Version | Graphics & Text | Print | Product List | Glossary Off
Versions: 1 2 3 4 5 6 7 8 9 10 11 12 13 14 15 16 17 18 19 20 21 22 23 24 25 26 27 28 29 30 31 32 33 34 35 36 37 38 39 40 41 42 43 44 45 46 47 48 49 50

000
ASUS43 KEAX 201611
RWREAX

WEATHER ROUNDUP FOR EASTERN KANSAS AND NORTHWEST MISSOURI
NATIONAL WEATHER SERVICE KANSAS CITY/PLEASANT HILL MO
1100 AM CDT MON OCT 20 2014

KSZ040-057-103>105-MOZ028-029-037-043-201700-
...KANSAS CITY METROPOLITAN AREA...

CITY           SKY/WX    TMP DP  RH WIND       PRES   REMARKS
K.C. INTL      MOSUNNY   64  51  62 NE6       30.07R
K.C. DOWNTOWN  SUNNY     66  52  60 N7        30.06S
LEES SUMMIT    SUNNY     64  52  64 N9        30.07R
OLATHE - IXD   SUNNY     63  54  72 N7        30.07S
OLATHE - OJC   SUNNY     64  54  69 NE8       30.06R
LAWRENCE       SUNNY     65  52  62 NE8       30.07S

$$

MOZ001>008-011>017-020>025-030>033-038>040-044>046-053-054-201700-
...NORTHERN AND CENTRAL MISSOURI...

CITY           SKY/WX    TMP DP  RH WIND       PRES   REMARKS
ST. JOSEPH     SUNNY     65  47  52 NE6       30.08R
MOSBY          SUNNY     64  46  52 N6        30.06S
WHITEMAN AFB   SUNNY     64  55  71 N8        30.05R
CLINTON        SUNNY     66  57  72 CALM      30.06S
SEDALIA        SUNNY     65  53  65 NW5       30.06R
WARSAW         NOT AVBL
MARSHALL       SUNNY     66  54  63 N7        30.06S
CHILLICOTHE      N/A     65  47  52 NE7       30.06S
MOBERLY        SUNNY     64  46  52 N7        30.05R
KIRKSVILLE     SUNNY     63  48  58 N9        30.04S

$$

MOZ041-047>049-056>058-063>065-088>090-097-201700-
...EASTERN AND SOUTHERN MISSOURI...

CITY           SKY/WX    TMP DP  RH WIND       PRES   REMARKS
ST. LOUIS INTL MOSUNNY   67  53  61 NW10      29.99S
SPIRIT OF STL  SUNNY     66  53  63 MISG      29.99S
COLUMBIA       SUNNY     65  54  67 NW7       30.04R
JEFFERSON CITY SUNNY     65  52  62 NW9       30.03S
MEXICO         SUNNY     66  55  68 NW9       30.03R
HANNIBAL       SUNNY     64  45  48 NW8       30.01S
ROLLA          SUNNY     64  53  67 W10       30.02S
LEBANON        SUNNY     66  54  63 W10G17    30.06F
OSAGE BEACH    SUNNY     66  54  63 W8        30.05R
SPRINGFIELD    CLOUDY    64  53  67 W10       30.07S
BRANSON        CLOUDY    64  54  68 SW6       30.10R
NEVADA         SUNNY     66  55  68 W6        30.08S
JOPLIN         SUNNY     65  54  67 SW10      30.09S
WEST PLAINS    PTSUNNY   67  53  61 VRB7      30.07S

$$

IAZ060-094-KSZ022-034>040-054-083-096-NEZ052-066-093-201700-
...KANSAS...SOUTHEAST NEBRASKA AND IOWA...

CITY           SKY/WX    TMP DP  RH WIND       PRES   REMARKS
TOPEKA         SUNNY     65  53  65 N9        30.08S
MANHATTAN      SUNNY     62  52  69 E5        30.09R
EMPORIA        SUNNY     66  57  72 N7        30.07S
CHANUTE        SUNNY     67  57  70 NW6       30.07F
WICHITA        SUNNY     69  57  65 N8        30.08S
OMAHA          SUNNY     59  45  59 N7        30.10F
LINCOLN        SUNNY     62  45  53 NE5       30.13R
FALLS CITY     SUNNY     64  46  52 E8        30.08R
LAMONI         SUNNY     62  47  57 N6        30.06S
DES MOINES     SUNNY     61  46  57 NW6       30.05S

$$



USA.gov is the U.S. government's official web portal to all federal, state and local government web resources and services.